• In Hungary
  • List of Countries
  • For 7 days
  • Water Temperature
  • Satellite Maps
  • Weather Map
  • News
  • Weather Widgets
  • user-avatar
    Login

    Hourly Weather Atlantic City

    Today, 11 December, Monday

    Time Temperature Precipitation Wind Pressure Humidity
    00:00 -4°C° 0 mm 6 mps 763 mmHg 88%
    01:00 -4°C° 0 mm 6 mps 763 mmHg 89%
    02:00 -3°C° 0 mm 6 mps 763 mmHg 89%
    03:00 -3°C° 0 mm 6 mps 762 mmHg 89%
    04:00 -2°C° 0 mm 6 mps 762 mmHg 89%
    05:00 -3°C° 0 mm 6 mps 762 mmHg 90%
    06:00 -4°C° 0 mm 6 mps 762 mmHg 91%
    07:00 -4°C° 0 mm 6 mps 762 mmHg 92%
    08:00 -3°C° 0 mm 6 mps 763 mmHg 88%
    09:00 -2°C° 0 mm 6 mps 763 mmHg 83%
    10:00 -1°C° 0 mm 6 mps 763 mmHg 79%
    11:00 +1°C° 0 mm 6 mps 763 mmHg 77%
    12:00 +1°C° 0 mm 5 mps 763 mmHg 75%
    13:00 +3°C° 0 mm 4 mps 762 mmHg 73%
    14:00 +1°C° 0 mm 4 mps 762 mmHg 76%
    15:00 +1°C° 0 mm 3 mps 762 mmHg 78%
    16:00 +1°C° 0 mm 3 mps 762 mmHg 81%
    17:00 +1°C° 0 mm 2 mps 762 mmHg 83%
    18:00 -1°C° 0 mm 2 mps 762 mmHg 85%
    19:00 -2°C° 0 mm 2 mps 762 mmHg 88%
    20:00 -2°C° 0 mm 2 mps 762 mmHg 88%
    21:00 -2°C° 0 mm 2 mps 761 mmHg 88%
    22:00 -2°C° 0 mm 2 mps 761 mmHg 89%
    23:00 -1°C° 0 mm 3 mps 760 mmHg 88%

    Tomorrow, 12 December, Tuesday

    Time Temperature Precipitation Wind Pressure Humidity
    00:00 -2°C° 0 mm 4 mps 760 mmHg 87%
    01:00 -1°C° 0 mm 5 mps 759 mmHg 85%
    02:00 0°C° 0 mm 5 mps 758 mmHg 86%
    03:00 +1°C° 0 mm 5 mps 757 mmHg 86%
    04:00 +2°C° 0 mm 6 mps 756 mmHg 86%
    05:00 +3°C° 0 mm 6 mps 755 mmHg 86%
    06:00 +3°C° 0 mm 7 mps 754 mmHg 86%
    07:00 +4°C° 0 mm 7 mps 753 mmHg 85%
    08:00 +4°C° 0 mm 8 mps 752 mmHg 85%
    09:00 +5°C° 0 mm 9 mps 751 mmHg 84%
    10:00 +5°C° 0 mm 9 mps 750 mmHg 84%
    11:00 +5°C° 0 mm 9 mps 749 mmHg 83%
    12:00 +5°C° 0 mm 9 mps 748 mmHg 83%
    13:00 +3°C° 0 mm 9 mps 747 mmHg 82%
    14:00 +3°C° 0.1 mm 9 mps 747 mmHg 80%
    15:00 +3°C° 0.1 mm 9 mps 747 mmHg 78%
    16:00 +2°C° 0.1 mm 9 mps 747 mmHg 76%
    17:00 0°C° 0 mm 10 mps 748 mmHg 73%
    18:00 -3°C° 0 mm 11 mps 748 mmHg 70%
    19:00 -6°C° 0 mm 12 mps 749 mmHg 67%
    20:00 -7°C° 0 mm 11 mps 749 mmHg 65%
    21:00 -8°C° 0 mm 11 mps 750 mmHg 64%
    22:00 -9°C° 0 mm 11 mps 750 mmHg 62%
    23:00 -11°C° 0 mm 11 mps 750 mmHg 62%

    Day after tomorrow, 13 December, Wednesday

    Time Temperature Precipitation Wind Pressure Humidity
    00:00 -11°C° 0 mm 11 mps 750 mmHg 61%
    01:00 -12°C° 0 mm 10 mps 750 mmHg 61%
    02:00 -12°C° 0 mm 11 mps 749 mmHg 61%
    03:00 -11°C° 0 mm 11 mps 749 mmHg 60%
    04:00 -11°C° 0 mm 12 mps 749 mmHg 60%
    05:00 -11°C° 0 mm 12 mps 749 mmHg 59%
    06:00 -10°C° 0 mm 12 mps 750 mmHg 58%
    07:00 -10°C° 0 mm 12 mps 750 mmHg 57%
    08:00 -8°C° 0 mm 12 mps 750 mmHg 54%
    09:00 -7°C° 0 mm 13 mps 751 mmHg 51%
    10:00 -6°C° 0 mm 13 mps 751 mmHg 48%
    11:00 -6°C° 0 mm 13 mps 752 mmHg 46%
    12:00 -6°C° 0 mm 13 mps 752 mmHg 43%
    13:00 -5°C° 0 mm 13 mps 752 mmHg 41%
    14:00 -5°C° 0 mm 12 mps 753 mmHg 41%
    15:00 -5°C° 0 mm 12 mps 753 mmHg 40%
    16:00 -6°C° 0 mm 11 mps 754 mmHg 40%
    17:00 -6°C° 0 mm 11 mps 755 mmHg 43%
    18:00 -7°C° 0 mm 11 mps 756 mmHg 46%
    19:00 -8°C° 0 mm 10 mps 756 mmHg 49%
    20:00 -8°C° 0 mm 10 mps 757 mmHg 49%
    21:00 -9°C° 0 mm 10 mps 757 mmHg 49%
    22:00 -9°C° 0 mm 10 mps 757 mmHg 48%
    23:00 -9°C° 0 mm 10 mps 757 mmHg 49%

    14 December, Thursday

    Time Temperature Precipitation Wind Pressure Humidity
    00:00 -9°C° 0 mm 9 mps 757 mmHg 50%
    01:00 -9°C° 0 mm 9 mps 758 mmHg 50%
    02:00 -9°C° 0 mm 9 mps 757 mmHg 52%
    03:00 -8°C° 0 mm 8 mps 757 mmHg 54%
    04:00 -8°C° 0 mm 7 mps 757 mmHg 56%
    05:00 -7°C° 0 mm 7 mps 757 mmHg 57%
    06:00 -6°C° 0 mm 6 mps 757 mmHg 58%
    07:00 -5°C° 0 mm 6 mps 757 mmHg 58%
    08:00 -4°C° 0 mm 6 mps 757 mmHg 55%
    09:00 -2°C° 0 mm 7 mps 757 mmHg 51%
    10:00 0°C° 0 mm 7 mps 756 mmHg 47%
    11:00 0°C° 0.1 mm 7 mps 755 mmHg 50%
    12:00 +2°C° 0.1 mm 7 mps 755 mmHg 52%
    13:00 +3°C° 0.1 mm 7 mps 754 mmHg 54%
    14:00 +2°C° 0 mm 7 mps 754 mmHg 58%
    15:00 +2°C° 0 mm 7 mps 753 mmHg 61%
    16:00 0°C° 0 mm 7 mps 753 mmHg 65%
    17:00 0°C° 0 mm 7 mps 753 mmHg 68%
    18:00 0°C° 0 mm 7 mps 754 mmHg 70%
    19:00 0°C° 0 mm 7 mps 754 mmHg 73%
    20:00 -1°C° 0 mm 8 mps 755 mmHg 75%
    21:00 -1°C° 0 mm 8 mps 755 mmHg 77%
    22:00 -1°C° 0 mm 8 mps 755 mmHg 79%
    23:00 -2°C° 0 mm 8 mps 755 mmHg 78%

    15 December, Friday

    Time Temperature Precipitation Wind Pressure Humidity
    00:00 -3°C° 0 mm 7 mps 755 mmHg 78%
    01:00 -4°C° 0 mm 7 mps 755 mmHg 77%
    02:00 -4°C° 0 mm 6 mps 756 mmHg 77%
    03:00 -4°C° 0 mm 6 mps 756 mmHg 77%
    04:00 -4°C° 0 mm 6 mps 756 mmHg 77%
    05:00 -4°C° 0 mm 5 mps 756 mmHg 77%
    06:00 -5°C° 0 mm 5 mps 757 mmHg 77%
    07:00 -5°C° 0 mm 5 mps 757 mmHg 77%
    08:00 -3°C° 0 mm 4 mps 757 mmHg 73%
    09:00 -2°C° 0 mm 4 mps 758 mmHg 68%
    10:00 -1°C° 0 mm 4 mps 758 mmHg 63%
    11:00 0°C° 0 mm 4 mps 758 mmHg 59%
    12:00 0°C° 0 mm 4 mps 757 mmHg 55%
    13:00 +1°C° 0 mm 4 mps 757 mmHg 51%
    14:00 0°C° 0 mm 4 mps 757 mmHg 55%
    15:00 +1°C° 0 mm 3 mps 756 mmHg 59%
    16:00 0°C° 0 mm 3 mps 756 mmHg 62%
    17:00 -1°C° 0 mm 3 mps 757 mmHg 67%
    18:00 -2°C° 0 mm 3 mps 757 mmHg 72%
    19:00 -4°C° 0 mm 3 mps 758 mmHg 76%
    20:00 -4°C° 0 mm 3 mps 758 mmHg 76%
    21:00 -2°C° 0 mm 3 mps 758 mmHg 76%
    22:00 -2°C° 0 mm 3 mps 758 mmHg 76%
    23:00 -3°C° 0 mm 4 mps 759 mmHg 78%

    16 December, Saturday

    Time Temperature Precipitation Wind Pressure Humidity
    00:00 -5°C° 0 mm 5 mps 759 mmHg 80%
    01:00 -5°C° 0 mm 6 mps 759 mmHg 82%
    02:00 -5°C° 0 mm 6 mps 760 mmHg 81%
    03:00 -5°C° 0 mm 6 mps 760 mmHg 81%
    04:00 -6°C° 0 mm 6 mps 760 mmHg 81%
    05:00 -6°C° 0 mm 6 mps 761 mmHg 80%
    06:00 -6°C° 0 mm 6 mps 761 mmHg 79%
    07:00 -6°C° 0 mm 5 mps 762 mmHg 78%
    08:00 -5°C° 0 mm 6 mps 762 mmHg 69%
    09:00 -3°C° 0 mm 6 mps 762 mmHg 60%
    10:00 -2°C° 0 mm 7 mps 763 mmHg 50%
    11:00 -1°C° 0 mm 7 mps 762 mmHg 50%
    12:00 0°C° 0 mm 8 mps 761 mmHg 49%
    13:00 +1°C° 0 mm 8 mps 760 mmHg 48%
    14:00 +1°C° 0 mm 9 mps 760 mmHg 51%
    15:00 +1°C° 0 mm 9 mps 760 mmHg 54%
    16:00 +1°C° 0 mm 9 mps 759 mmHg 57%
    17:00 +1°C° 0 mm 9 mps 760 mmHg 58%
    18:00 +1°C° 0 mm 9 mps 760 mmHg 59%
    19:00 0°C° 0 mm 9 mps 760 mmHg 60%
    20:00 +1°C° 0 mm 9 mps 761 mmHg 61%
    21:00 +1°C° 0 mm 9 mps 761 mmHg 62%
    22:00 +1°C° 0 mm 9 mps 761 mmHg 63%
    23:00 +1°C° 0 mm 8 mps 761 mmHg 66%
    Show more